sat.trackr.live / text

‹ back to catalog

STARLINK-36643

NORAD 67822 · 2026-033B

PAYLOAD ACTIVE UNKNOWN

§ Identity

Operator
Country
US
Launch date
2026-02-16
Launch site
AFETR
Launch vehicle
Mass (kg)
RCS (m²)

Purposes: comms

External: N2YO · Heavens-Above · Gunter

§ Orbital elements

Epoch: 2026-05-25T03:27:09.517824Z

Period
94.27 min
Inclination
43.0003°
Eccentricity
0.0001420
Mean motion
15.27589022 rev/d
Perigee alt
482.0 km
Apogee alt
484.0 km
Semi-major
6,861.2 km
B*
3.8544e-4
RAAN
195.5525°
Arg perigee
246.1483°
Mean anomaly
113.9220°
Rev number
1,636

§ Raw data

STARLINK-366431 67822U 26033B   26145.14386016  .00010362  00000+0  38544-3 0  99942 67822  43.0003 195.5525 0001420 246.1483 113.9220 15.27589022 16369

JSON: /api/v1/satellites/67822 · /tle

For live sub-satellite position, see the globe view (requires WebGL).

§ Visibility from observer

Set your observer location to see the next 7 days of passes ≥ 10°. The values pass through the URL so the page stays shareable.

No JS? Fill the form by hand. The geolocation button needs JavaScript.